Volver al catálogo

SL-12 R/B

AUX MOTOR

ActivoHEO
NORAD 20082·ROCKET BODY·🇷🇺 Russia

Lanzado May 31, 1989 desde Baikonur Cosmodrome

Loading…

Próximos Pases (próximas 24 horas)

TLE

ActualizadoSource: Space-Track

Época: Sep 14, 2026, 05:14 UTC

1 20082U 89039H   26257.21830570 -.00000076  00000-0 -11902-3 0  9990
2 20082  65.1177 333.4349 5553398  88.1440 331.2699  4.42434409587695

Sigue SL-12 R/B en tiempo real con AllMySat

Download on the App Store